CAPE
399 348 437 686 790 967 901 958 1144 1414 1507 1375 1163 933 2500 2491 3027 3421 3184 2179 1548 1356 642 916 312 440 302 23 0 0 0 0 18 31 45 39 21 18 0 1 4 1 3
496 848 889 1044 1114 1133 1298 1271 1367 1328 1427 1547 1547 1237 1173 2055 2838 2893 2887 1954 1303 1334 953 610 633 469 387 68 0 0 0 0 18 2 13 17 40 1 0 3 5 0 0
663 865 1201 1530 1734 1935 1984 2142 2227 2095 2053 1997 1788 1545 1752 2021 2455 2873 2634 2252 1181 1087 700 294 488 487 420 94 0 0 0 2 1 46 7 9 35 23 4 1 1 0 0
1581 1484 1647 1839 1982 2195 2459 2665 2726 2702 2549 2445 2267 1754 1842 2207 2313 2501 2631 2059 1313 881 722 325 262 282 336 102 0 0 0 2 3 20 21 34 15 18 7 1 0 0 1
1037 1091 1136 1269 2148 2620 2911 2990 3073 3072 2879 2747 2654 2296 1787 1608 1526 2095 2309 2325 1257 661 536 568 180 215 213 86 0 0 0 0 2 13 21 25 26 38 19 3 0 0 3
1697 1604 1803 1818 2174 2270 2437 2512 2875 2963 3132 3086 2836 2623 2321 1886 1026 640 1165 1779 1167 431 406 474 132 124 159 76 1 0 0 2 3 0 15 16 41 25 2 6 0 0 1
1049 1064 1436 2002 2001 1295 1615 2126 2341 3053 3057 3149 3051 2845 2694 2354 1357 1048 891 1434 962 420 407 563 154 116 91 47 0 0 0 0 0 11 10 11 35 23 7 0 0 0 0
473 690 1032 1229 1521 1580 918 1070 2698 2908 3014 3172 2661 1889 1596 1343 1000 1028 1104 1438 755 419 397 638 127 79 95 24 0 0 0 1 1 0 12 28 30 9 5 0 0 0 0
198 242 625 754 778 960 1578 1021 984 2469 1617 1398 973 901 835 755 695 503 875 888 749 552 363 635 186 128 82 5 0 0 0 2 0 0 0 0 0 0 0 0 0 0 0
142 191 404 608 728 1121 1194 1425 1575 769 788 874 546 299 102 184 338 133 420 871 685 598 434 573 264 88 65 11 0 0 0 0 5 0 0 0 0 0 0 0 0 0 0
67 166 428 551 651 1248 1361 1612 784 650 471 338 110 47 24 8 72 16 9 517 795 514 509 462 286 111 73 3 0 0 0 0 0 1 0 0 6 0 0 0 0 1 0
65 155 262 347 622 936 1361 1650 1480 898 547 831 306 163 144 61 15 2 211 363 601 374 562 465 165 154 57 0 2 0 0 0 0 3 0 0 0 0 0 0 0 2 1
15 126 176 246 355 651 686 1230 1831 1635 1375 1577 694 198 50 1 50 160 474 530 417 805 828 452 266 230 67 0 0 0 0 0 0 0 2 0 0 0 0 0 0 0 0
1 14 37 152 178 347 459 680 1037 1092 946 993 995 868 708 470 153 645 835 1100 1176 1038 977 701 371 165 48 0 0 0 1 0 0 0 1 0 0 0 0 0 0 3 0
2 4 35 9 65 237 318 492 724 778 799 863 654 559 409 619 765 1063 1099 1032 1034 925 763 742 285 140 44 1 0 4 7 0 0 0 0 1 0 0 0 0 0 4 0
2 3 5 0 0 96 395 499 574 578 571 701 769 730 525 513 576 959 948 760 806 921 754 740 404 164 93 28 8 42 20 4 2 0 0 1 1 0 0 0 0 0 2
3 2 2 0 0 0 313 521 481 559 634 525 482 526 476 423 416 626 919 885 989 764 834 1025 711 276 150 96 19 32 29 14 0 1 0 0 2 3 0 0 0 0 7
1 0 0 0 0 0 372 601 541 505 495 504 430 380 318 356 323 260 339 468 550 734 911 746 736 807 572 276 111 58 33 29 7 0 0 0 0 1 2 0 0 0 0
0 0 0 0 0 1 122 436 420 556 654 491 310 361 266 208 147 166 76 31 37 54 46 370 541 571 495 440 297 143 73 73 25 13 3 5 0 0 0 3 0 0 0
0 0 0 0 0 2 2 172 282 375 709 447 299 290 291 262 91 113 196 107 164 265 101 23 58 72 334 180 291 47 72 58 32 36 9 23 0 0 0 0 0 0 0
0 0 0 0 0 36 78 117 126 257 505 208 258 198 266 366 151 95 60 47 51 51 54 101 72 93 1 126 192 53 33 56 68 73 68 27 15 0 0 0 0 1 0
0 0 0 0 0 28 94 155 210 275 301 353 351 347 296 318 360 112 89 65 31 21 54 49 36 47 188 288 150 201 230 154 120 86 60 8 4 0 0 0 0 0 0
0 0 0 0 0 10 74 94 95 245 266 286 263 356 289 264 360 324 295 291 245 171 122 83 51 48 91 74 43 34 73 228 282 71 35 13 23 12 0 0 0 0 0
0 0 0 0 1 15 67 62 83 82 172 264 236 223 270 214 270 346 388 408 245 256 207 187 130 93 72 90 81 62 25 121 80 89 51 18 0 0 2 0 0 0 0
0 3 1 0 1 40 62 102 82 106 89 170 218 363 224 187 282 302 310 230 231 217 197 80 68 58 170 289 138 71 41 42 138 38 12 5 49 9 5 7 0 0 5
4 5 4 6 10 35 95 196 89 102 124 216 280 279 318 193 140 227 270 227 170 133 159 151 54 21 20 37 31 63 48 24 34 59 85 31 11 4 2 2 0 6 19
CIN
-149 -136 -150 -140 -137 -131 -137 -109 -89 -67 -69 -70 -70 -76 -23 -23 -20 -10 -13 -21 -5 -2 -8 -7 -25 -6 -2 -59 -0 -0 -0 -0 -0 -0 -0 -0 -0 -0 -0 -0 -0 -0 -0
-142 -140 -150 -136 -137 -128 -132 -120 -113 -106 -87 -72 -55 -85 -80 -30 -12 -18 -11 -23 -13 -2 -3 -15 -11 -3 -2 -58 -0 -0 -0 -0 -0 -0 -0 -0 -0 -0 -0 -0 -0 -0 -0
-151 -132 -105 -100 -100 -104 -103 -85 -76 -93 -84 -74 -71 -73 -59 -36 -14 -7 -18 -18 -35 -8 -2 -22 -14 -1 -1 -44 -0 -0 -0 -0 -0 -0 -0 -0 -0 -1 -0 -0 -0 -0 -0
-111 -106 -80 -66 -56 -48 -48 -51 -59 -51 -69 -67 -86 -89 -60 -31 -21 -9 -1 -16 -37 -17 -14 -7 -11 -10 -2 -51 -0 -0 -0 -0 -0 -0 -0 -0 -0 -3 -0 -0 -0 -0 -0
-91 -102 -88 -83 -73 -29 -21 -32 -35 -46 -60 -67 -67 -77 -86 -77 -51 -44 -17 -4 -33 -40 -26 -12 -15 -6 -19 -51 -0 -0 -0 -0 -0 -0 -0 -0 -0 -0 -0 -0 -0 -0 -0
-3 -54 -46 -57 -53 -54 -30 -51 -32 -30 -33 -40 -52 -60 -54 -56 -95 -158 -95 -22 -33 -71 -21 -8 -15 -14 -18 -57 -58 -0 -0 -0 -0 -0 -0 -0 -0 -0 -0 -0 -0 -0 -0
-10 -56 -72 -19 -31 -106 -71 -65 -49 -12 -6 -17 -27 -16 -8 -26 -95 -60 -50 -38 -55 -53 -36 -13 -17 -12 -17 -44 -16 -0 -0 -0 -0 -0 -0 -0 -0 -0 -0 -0 -0 -0 -0
-94 -71 -50 -56 -63 -50 -98 -162 -56 -9 -2 -16 -39 -91 -69 -58 -69 -21 -37 -38 -44 -52 -37 -10 -63 -12 -13 -52 -0 -0 -0 -0 -0 -0 -0 -0 -0 -0 -0 -0 -0 -0 -0
-149 -126 -66 -56 -81 -90 -36 -117 -123 -8 -89 -96 -81 -78 -93 -71 -127 -49 -16 -69 -58 -44 -47 -17 -46 -35 -30 -57 -0 -0 -0 -0 -0 -0 -0 -0 -0 -0 -0 -0 -0 -0 -0
-235 -195 -133 -119 -132 -68 -74 -73 -66 -187 -187 -76 -78 -82 -109 -154 -289 -36 -1 -30 -58 -36 -46 -22 -28 -69 -72 -76 -0 -0 -0 -0 -0 -0 -0 -0 -0 -0 -0 -0 -0 -0 -0
-377 -253 -166 -160 -137 -37 -36 -38 -147 -215 -267 -283 -371 -498 -565 -638 -244 -180 -1 -0 -30 -37 -34 -28 -36 -104 -78 -84 -0 -0 -0 -0 -0 -0 -0 -0 -0 -0 -0 -0 -0 -0 -0
-344 -255 -187 -138 -141 -98 -20 -3 -24 -66 -114 -127 -270 -361 -222 -98 -120 -22 -7 -0 -29 -54 -33 -24 -50 -41 -104 -0 -76 -0 -0 -0 -0 -0 -0 -0 -0 -0 -0 -0 -0 -0 -0
-402 -260 -216 -144 -159 -114 -94 -0 -0 -13 -35 -8 -139 -216 -92 -1 -235 -129 -31 -53 -27 -31 -11 -20 -9 -31 -82 -0 -0 -0 -0 -0 -0 -0 -0 -0 -0 -0 -0 -0 -0 -0 -0
-0 -333 -288 -187 -193 -144 -135 -81 -19 -32 -73 -49 -43 -31 -29 -29 -110 -48 -33 -42 -20 -30 -16 -5 -1 -23 -78 -0 -0 -0 -51 -0 -0 -0 -0 -0 -0 -0 -0 -0 -0 -0 -0
-0 -0 -295 -269 -185 -106 -105 -77 -57 -43 -67 -45 -69 -58 -70 -60 -58 -20 -46 -43 -51 -40 -31 -16 -37 -66 -120 -7 -0 -37 -34 -0 -9 -0 -0 -0 -0 -0 -0 -0 -0 -0 -0
-0 -0 -0 -0 -9 -88 -34 -36 -40 -58 -63 -73 -63 -60 -69 -83 -100 -59 -71 -75 -71 -31 -21 -16 -42 -75 -94 -68 -45 -26 -11 -17 -21 -0 -0 -0 -0 -0 -0 -0 -0 -0 -0
-0 -0 -0 -0 -0 -0 -8 -7 -25 -22 -37 -72 -105 -88 -105 -112 -113 -94 -36 -41 -30 -30 -2 -0 -10 -51 -84 -79 -40 -16 -3 -17 -1 -25 -0 -0 -0 -0 -0 -0 -0 -0 -0
-0 -0 -0 -0 -0 -0 -0 -8 -5 -24 -21 -31 -81 -121 -130 -113 -110 -100 -103 -91 -72 -40 -15 -6 -9 -0 -2 -27 -53 -7 -0 -2 -0 -0 -8 -0 -0 -0 -0 -0 -0 -0 -0
-0 -0 -0 -0 -0 -0 -2 -0 -0 -0 -12 -29 -72 -96 -149 -115 -224 -251 -315 -343 -312 -282 -242 -90 -42 -18 -5 -10 -0 -0 -0 -0 -0 -7 -9 -8 -0 -0 -0 -0 -0 -0 -0
-0 -0 -0 -0 -0 -0 -0 -4 -0 -0 -0 -17 -60 -84 -109 -125 -218 -272 -216 -262 -248 -185 -198 -144 -212 -183 -48 -47 -3 -15 -4 -0 -4 -0 -7 -0 -0 -0 -0 -0 -0 -0 -0
-0 -0 -0 -0 -0 -5 -8 -1 -0 -14 -0 -37 -41 -79 -88 -92 -137 -209 -206 -224 -200 -172 -245 -205 -203 -166 -0 -59 -3 -23 -34 -8 -1 -1 -0 -0 -0 -0 -0 -0 -0 -0 -0
-0 -0 -0 -0 -0 -4 -6 -3 -0 -0 -1 -5 -22 -38 -67 -83 -86 -146 -211 -176 -246 -262 -189 -184 -191 -198 -98 -27 -46 -8 -0 -1 -0 -0 -0 -3 -1 -0 -0 -0 -0 -0 -0
-0 -0 -0 -0 -0 -3 -6 -13 -52 -3 -0 -2 -14 -22 -58 -80 -66 -80 -98 -109 -114 -120 -144 -151 -184 -176 -117 -105 -30 -102 -7 -15 -0 -11 -7 -0 -9 -6 -0 -0 -0 -0 -0
-0 -0 -0 -0 -134 -124 -16 -19 -25 -62 -25 -2 -8 -17 -29 -68 -52 -38 -36 -37 -59 -54 -69 -75 -105 -117 -142 -127 -87 -94 -119 -39 -40 -17 -5 -0 -0 -0 -0 -0 -2 -0 -0
-0 -0 -1 -0 -154 -121 -104 -73 -35 -67 -67 -24 -8 -1 -20 -35 -23 -24 -24 -45 -46 -52 -61 -113 -113 -121 -91 -49 -84 -91 -89 -53 -25 -44 -2 -3 -1 -1 -10 -3 -0 -0 -9
-0 -0 -0 -54 -47 -148 -79 -24 -82 -70 -66 -22 -7 -3 -2 -17 -43 -27 -22 -30 -51 -71 -75 -69 -110 -122 -150 -87 -130 -118 -122 -152 -114 -61 -11 -24 -17 -0 -1 -3 -0 -0 -1
Wind_Speed
12 12 11 12 11 11 11 9 7 6 7 7 8 8 11 15 17 20 23 24 24 26 29 32 32 31 27 nan nan nan nan nan nan nan nan nan nan nan nan nan nan nan nan
10 13 14 14 15 12 12 12 10 10 10 11 13 15 15 16 19 20 22 24 23 24 29 31 32 32 23 nan nan nan nan nan nan nan nan nan nan nan nan nan nan nan nan
12 13 14 15 14 14 14 14 10 10 13 13 14 15 16 16 17 17 19 24 25 24 29 31 32 34 33 nan nan nan nan nan nan nan nan nan nan nan nan nan nan nan nan
14 13 11 12 12 13 15 14 13 13 11 12 14 16 15 16 16 15 17 22 23 24 29 30 34 35 34 26 nan nan nan nan nan nan nan nan nan nan nan nan nan nan nan
29 22 19 17 14 16 13 11 13 14 13 14 15 16 14 16 14 16 19 23 21 25 29 30 34 31 31 nan nan nan nan nan nan nan nan nan nan nan nan nan nan nan nan
38 31 31 22 18 18 13 18 16 10 8 12 17 17 14 11 15 21 17 17 23 26 27 29 33 30 30 nan nan nan nan nan nan nan nan nan nan nan nan nan nan nan nan
29 28 30 29 22 17 25 16 19 14 10 15 20 17 17 13 12 17 18 13 22 26 31 33 32 25 nan nan nan nan nan nan nan nan nan nan nan nan nan nan nan nan nan
41 40 33 26 25 24 19 23 14 16 14 25 29 30 30 29 21 10 15 14 19 25 30 31 27 nan nan nan nan nan nan nan nan nan nan nan nan nan nan nan nan nan nan
34 23 24 18 15 12 8 11 15 18 28 30 31 36 37 38 41 18 13 16 18 25 25 24 27 31 nan nan nan nan nan nan nan nan nan nan nan nan nan nan nan nan nan
12 13 14 14 16 12 8 6 12 18 20 20 24 36 33 33 49 20 13 7 17 19 16 20 22 nan nan nan nan nan nan nan nan nan nan nan nan nan nan nan nan nan nan
nan 16 17 17 14 9 10 12 12 19 18 20 27 nan nan nan nan nan nan 15 4 3 10 18 23 32 nan nan nan nan nan nan nan nan nan nan nan nan nan nan nan nan nan
nan 31 33 28 28 25 21 17 15 17 19 25 26 31 34 nan nan nan 19 27 11 6 13 18 24 37 nan nan nan nan nan nan nan nan nan nan nan nan nan nan nan nan nan
nan 36 36 38 39 33 31 31 27 26 21 25 26 30 nan nan nan 2 18 12 12 6 11 19 29 37 nan nan nan nan nan nan nan nan nan nan nan nan nan nan nan nan nan
nan nan nan 40 37 36 39 39 36 34 31 26 24 30 12 7 12 8 14 6 5 7 18 21 25 29 nan nan nan nan nan nan nan nan nan nan nan nan nan nan nan nan nan
nan nan nan nan nan 42 43 41 38 37 36 33 30 27 28 22 14 10 8 11 10 13 21 22 24 28 nan nan nan nan nan nan nan nan nan nan nan nan nan nan nan nan nan
nan nan nan nan nan nan 49 49 50 47 41 39 34 29 29 16 11 12 16 17 21 25 18 24 25 26 nan nan nan nan nan nan nan nan nan nan nan nan nan nan nan nan nan
nan nan nan nan nan nan 50 45 46 48 40 36 36 36 32 19 16 15 17 20 24 23 17 22 27 28 28 nan nan nan nan nan nan nan nan nan nan nan nan nan nan nan nan
nan nan nan nan nan nan 54 48 42 40 40 37 36 38 35 36 33 29 29 30 24 18 23 22 26 27 27 32 31 nan nan nan nan nan nan nan nan nan nan nan nan nan nan
nan nan nan nan nan nan 51 52 49 48 46 43 37 36 40 33 33 29 nan nan nan nan nan 26 28 31 32 32 31 29 nan nan nan nan nan nan nan nan nan nan nan nan nan
nan nan nan nan nan nan nan 51 52 50 49 45 42 43 38 32 nan 37 36 34 32 29 27 nan nan nan 31 32 34 nan nan nan nan nan nan nan nan nan nan nan nan nan nan
nan nan nan nan nan nan nan 55 49 51 48 48 45 42 36 40 40 nan nan nan nan nan nan 30 nan nan nan 28 31 nan nan nan nan nan nan nan nan nan nan nan nan nan nan
nan nan nan nan nan nan nan 53 56 57 55 51 47 45 44 43 43 42 nan nan nan nan nan nan nan nan 25 25 24 19 18 19 21 nan nan nan nan nan nan nan nan nan nan
nan nan nan nan nan nan nan nan nan 55 56 53 50 47 46 47 46 46 45 43 40 38 36 nan nan nan nan nan nan nan nan 17 19 nan nan nan nan nan nan nan nan nan nan
nan nan nan nan nan nan nan nan nan nan 49 53 50 48 48 48 47 47 44 43 40 38 36 34 32 nan nan nan nan nan nan 19 nan nan nan nan nan nan nan nan nan nan nan
nan nan nan nan nan nan nan 45 nan 43 nan 47 47 45 44 45 46 45 43 41 39 38 38 nan nan nan 32 27 23 nan nan nan 14 nan nan nan nan nan nan nan nan nan nan
nan nan nan nan nan nan nan 42 nan 42 41 43 46 43 41 40 40 40 40 41 41 41 40 38 nan nan nan nan nan nan nan nan nan nan nan nan nan nan nan nan nan nan nan
Wind_Direction
271 277 278 279 279 280 284 289 302 310 322 323 326 333 343 351 360 357 357 355 357 350 344 348 342 338 344 nan nan nan nan nan nan nan nan nan nan nan nan nan nan nan nan
251 253 265 272 280 281 283 291 302 311 319 326 330 335 343 349 357 2 2 1 357 2 356 353 346 337 341 nan nan nan nan nan nan nan nan nan nan nan nan nan nan nan nan
263 254 245 245 255 261 258 263 276 297 303 314 316 328 332 338 353 355 2 359 355 6 0 355 346 340 341 nan nan nan nan nan nan nan nan nan nan nan nan nan nan nan nan
236 250 242 248 255 252 255 264 271 270 282 297 316 325 328 327 342 347 358 359 350 3 356 356 347 346 346 352 nan nan nan nan nan nan nan nan nan nan nan nan nan nan nan
223 236 245 238 251 251 257 271 277 286 295 310 316 310 318 326 327 339 1 349 357 355 352 353 345 343 351 nan nan nan nan nan nan nan nan nan nan nan nan nan nan nan nan
228 236 231 241 259 255 255 245 266 277 301 314 311 304 307 307 314 323 352 344 344 346 346 348 343 341 351 nan nan nan nan nan nan nan nan nan nan nan nan nan nan nan nan
204 214 233 234 238 247 243 244 252 272 280 306 299 297 304 288 283 304 332 341 330 339 336 343 346 345 nan nan nan nan nan nan nan nan nan nan nan nan nan nan nan nan nan
214 205 207 219 232 232 237 254 263 274 291 291 289 263 254 252 229 244 307 335 323 332 334 340 346 nan nan nan nan nan nan nan nan nan nan nan nan nan nan nan nan nan nan
201 185 186 198 220 227 214 256 276 300 291 293 298 295 279 257 241 229 283 310 320 322 330 340 343 345 nan nan nan nan nan nan nan nan nan nan nan nan nan nan nan nan nan
211 192 184 214 225 225 234 287 288 307 294 296 290 282 283 264 271 255 169 280 303 298 322 332 341 nan nan nan nan nan nan nan nan nan nan nan nan nan nan nan nan nan nan
nan 237 232 226 213 246 256 268 275 280 304 298 289 nan nan nan nan nan nan 99 327 287 327 329 343 335 nan nan nan nan nan nan nan nan nan nan nan nan nan nan nan nan nan
nan 226 224 242 264 262 254 252 273 279 302 285 284 290 279 nan nan nan 117 99 77 33 335 331 338 339 nan nan nan nan nan nan nan nan nan nan nan nan nan nan nan nan nan
nan 242 239 238 250 256 252 251 262 281 290 296 293 294 nan nan nan 167 89 85 68 19 327 322 325 331 nan nan nan nan nan nan nan nan nan nan nan nan nan nan nan nan nan
nan nan nan 249 243 248 254 257 260 264 279 295 291 300 322 264 263 255 88 67 10 301 291 300 319 332 nan nan nan nan nan nan nan nan nan nan nan nan nan nan nan nan nan
nan nan nan nan nan 250 257 252 255 257 270 283 281 282 286 278 288 309 306 310 300 301 294 300 310 319 nan nan nan nan nan nan nan nan nan nan nan nan nan nan nan nan nan
nan nan nan nan nan nan 251 258 253 254 252 269 267 261 276 295 299 273 252 268 302 309 290 299 306 313 nan nan nan nan nan nan nan nan nan nan nan nan nan nan nan nan nan
nan nan nan nan nan nan 251 250 258 262 262 257 256 240 241 234 236 236 243 252 275 290 289 299 302 306 316 nan nan nan nan nan nan nan nan nan nan nan nan nan nan nan nan
nan nan nan nan nan nan 249 249 249 260 263 257 246 240 236 231 234 249 260 257 262 258 275 282 293 297 302 308 313 nan nan nan nan nan nan nan nan nan nan nan nan nan nan
nan nan nan nan nan nan 245 246 246 249 253 254 248 244 237 236 241 250 nan nan nan nan nan 276 280 287 290 292 295 304 nan nan nan nan nan nan nan nan nan nan nan nan nan
nan nan nan nan nan nan nan 239 242 242 244 246 242 237 237 240 nan 241 245 255 262 267 273 nan nan nan 294 299 304 nan nan nan nan nan nan nan nan nan nan nan nan nan nan
nan nan nan nan nan nan nan 232 232 238 239 241 242 234 224 236 237 nan nan nan nan nan nan 265 nan nan nan 301 305 nan nan nan nan nan nan nan nan nan nan nan nan nan nan
nan nan nan nan nan nan nan 227 228 230 231 232 233 232 227 235 235 238 nan nan nan nan nan nan nan nan 289 300 305 305 307 302 293 nan nan nan nan nan nan nan nan nan nan
nan nan nan nan nan nan nan nan nan 229 230 228 226 228 229 232 233 235 238 241 243 245 245 nan nan nan nan nan nan nan nan 312 307 nan nan nan nan nan nan nan nan nan nan
nan nan nan nan nan nan nan nan nan nan 234 233 229 230 231 231 233 235 239 241 242 244 245 246 248 nan nan nan nan nan nan 287 nan nan nan nan nan nan nan nan nan nan nan
nan nan nan nan nan nan nan 230 nan 231 nan 235 235 232 233 235 237 237 237 239 243 244 244 nan nan nan 249 251 249 nan nan nan 261 nan nan nan nan nan nan nan nan nan nan
nan nan nan nan nan nan nan 228 nan 227 227 231 231 231 232 231 232 233 234 237 240 241 242 243 nan nan nan nan nan nan nan nan nan nan nan nan nan nan nan nan nan nan nan